Time,TemperatureF,DewpointF,PressureIn,WindDirection,WindDirectionDegrees,WindSpeedMPH,WindSpeedGustMPH,Humidity,HourlyPrecipIn,Conditions,Clouds,dailyrainin,SolarRadiationWatts/m^2,SoftwareType,DateUTC
2013-06-03 13:19:00,63.3,62.7,29.83,SSW,205,7.0,14.0,98,0.00,,,0.33,151,Wunderground v.1.15,2013-06-03 17:19:00,
2013-06-03 13:24:00,63.6,63.0,29.83,South,186,7.0,18.0,98,0.00,,,0.33,144,Wunderground v.1.15,2013-06-03 17:24:00,
2013-06-03 13:29:00,63.9,63.3,29.83,South,172,5.0,5.0,98,0.00,,,0.33,111,Wunderground v.1.15,2013-06-03 17:29:00,
2013-06-03 13:34:00,64.1,63.5,29.83,SSW,201,4.0,18.0,98,0.00,,,0.34,163,Wunderground v.1.15,2013-06-03 17:34:00,
2013-06-03 13:39:00,64.2,63.6,29.82,SSW,205,3.0,18.0,98,0.00,,,0.34,209,Wunderground v.1.15,2013-06-03 17:39:00,
2013-06-03 13:49:00,63.9,63.3,29.82,SSE,164,4.0,18.0,98,0.00,,,0.34,144,Wunderground v.1.15,2013-06-03 17:49:00,
2013-06-03 13:59:00,63.9,63.3,29.83,SW,227,3.0,3.0,98,0.00,,,0.34,195,Wunderground v.1.15,2013-06-03 17:59:00,
2013-06-03 14:09:00,63.6,63.0,29.83,South,188,3.0,13.0,98,0.00,,,0.34,239,Wunderground v.1.15,2013-06-03 18:09:00,
2013-06-03 14:14:00,63.0,62.4,29.83,South,190,4.0,13.0,98,0.00,,,0.34,188,Wunderground v.1.15,2013-06-03 18:14:00,
2013-06-03 14:19:00,63.0,62.4,29.83,SSE,157,4.0,13.0,98,0.00,,,0.34,149,Wunderground v.1.15,2013-06-03 18:19:00,
2013-06-03 14:29:00,63.1,62.5,29.83,SSW,213,5.0,11.0,98,0.00,,,0.34,137,Wunderground v.1.15,2013-06-03 18:29:00,
2013-06-03 14:39:00,62.8,62.2,29.84,SSW,211,4.0,11.0,98,0.00,,,0.34,186,Wunderground v.1.15,2013-06-03 18:39:00,
2013-06-03 14:44:00,62.8,62.2,29.83,SSW,200,5.0,11.0,98,0.00,,,0.34,195,Wunderground v.1.15,2013-06-03 18:44:00,
2013-06-03 14:54:00,63.0,62.4,29.83,SSW,210,4.0,11.0,98,0.00,,,0.34,276,Wunderground v.1.15,2013-06-03 18:54:00,
2013-06-03 14:59:00,63.5,62.9,29.83,SW,224,4.0,4.0,98,0.00,,,0.34,338,Wunderground v.1.15,2013-06-03 18:59:00,
2013-06-03 15:09:00,63.5,62.9,29.83,SSW,210,4.0,11.0,98,0.00,,,0.34,323,Wunderground v.1.15,2013-06-03 19:09:00,
2013-06-03 15:19:00,63.6,63.0,29.83,SSW,202,4.0,11.0,98,0.00,,,0.34,339,Wunderground v.1.15,2013-06-03 19:19:00,
2013-06-03 15:24:00,63.8,63.2,29.83,SSW,207,5.0,11.0,98,0.00,,,0.34,283,Wunderground v.1.15,2013-06-03 19:24:00,
2013-06-03 15:34:00,63.6,62.7,29.83,South,171,6.0,6.0,97,0.00,,,0.34,364,Wunderground v.1.15,2013-06-03 19:34:00,
2013-06-03 15:44:00,63.4,62.5,29.83,South,186,5.0,11.0,97,0.00,,,0.34,246,Wunderground v.1.15,2013-06-03 19:44:00,
2013-06-03 15:54:00,63.2,62.3,29.83,South,173,4.0,13.0,97,0.00,,,0.34,271,Wunderground v.1.15,2013-06-03 19:54:00,
2013-06-03 16:04:00,63.2,62.3,29.82,South,169,4.0,13.0,97,0.00,,,0.34,271,Wunderground v.1.15,2013-06-03 20:04:00,
2013-06-03 16:14:00,63.4,62.5,29.82,SW,217,4.0,13.0,97,0.00,,,0.34,213,Wunderground v.1.15,2013-06-03 20:14:00,
2013-06-03 16:24:00,63.3,62.4,29.81,SW,220,4.0,5.0,97,0.00,,,0.34,244,Wunderground v.1.15,2013-06-03 20:24:00,
2013-06-03 16:29:00,63.4,62.5,29.82,SW,221,4.0,12.0,97,0.00,,,0.34,151,Wunderground v.1.15,2013-06-03 20:29:00,
2013-06-03 16:39:00,63.5,62.6,29.81,South,172,4.0,12.0,97,0.00,,,0.34,146,Wunderground v.1.15,2013-06-03 20:39:00,
2013-06-03 16:49:00,63.7,62.8,29.81,SW,217,3.0,3.0,97,0.00,,,0.34,181,Wunderground v.1.15,2013-06-03 20:49:00,
2013-06-03 16:54:00,63.6,62.7,29.80,SSW,205,3.0,4.0,97,0.00,,,0.34,127,Wunderground v.1.15,2013-06-03 20:54:00,
2013-06-03 17:04:00,63.7,62.8,29.81,SW,226,3.0,5.0,97,0.00,,,0.34,174,Wunderground v.1.15,2013-06-03 21:04:00,
2013-06-03 17:14:00,63.5,62.6,29.80,South,182,3.0,4.0,97,0.00,,,0.34,181,Wunderground v.1.15,2013-06-03 21:14:00,
2013-06-03 17:19:00,63.4,62.5,29.80,South,178,4.0,4.0,97,0.00,,,0.34,163,Wunderground v.1.15,2013-06-03 21:19:00,
2013-06-03 17:29:00,63.1,62.2,29.80,SW,224,4.0,9.0,97,0.00,,,0.34,176,Wunderground v.1.15,2013-06-03 21:29:00,
2013-06-03 17:34:00,63.0,62.1,29.80,SW,221,4.0,9.0,97,0.00,,,0.34,155,Wunderground v.1.15,2013-06-03 21:34:00,
2013-06-03 17:44:00,62.9,62.0,29.79,SW,216,3.0,5.0,97,0.00,,,0.34,128,Wunderground v.1.15,2013-06-03 21:44:00,
2013-06-03 17:54:00,62.9,62.0,29.79,SSW,210,3.0,10.0,97,0.00,,,0.34,123,Wunderground v.1.15,2013-06-03 21:54:00,
2013-06-03 17:59:00,63.0,62.1,29.79,South,190,3.0,10.0,97,0.00,,,0.34,116,Wunderground v.1.15,2013-06-03 21:59:00,
2013-06-03 18:09:00,63.1,62.2,29.79,WSW,237,2.0,10.0,97,0.00,,,0.34,93,Wunderground v.1.15,2013-06-03 22:09:00,
2013-06-03 18:19:00,63.2,62.3,29.79,SSW,199,2.0,10.0,97,0.00,,,0.34,86,Wunderground v.1.15,2013-06-03 22:19:00,
2013-06-03 18:29:00,62.9,62.0,29.79,SSW,211,4.0,7.0,97,0.00,,,0.34,81,Wunderground v.1.15,2013-06-03 22:29:00,
2013-06-03 18:39:00,62.9,62.0,29.80,SSW,207,4.0,4.0,97,0.00,,,0.34,40,Wunderground v.1.15,2013-06-03 22:39:00,
2013-06-03 18:49:00,62.8,61.9,29.79,SSW,204,3.0,7.0,97,0.00,,,0.34,56,Wunderground v.1.15,2013-06-03 22:49:00,
2013-06-03 18:59:00,62.9,62.3,29.79,SSW,209,3.0,3.0,98,0.00,,,0.34,56,Wunderground v.1.15,2013-06-03 22:59:00,
2013-06-03 19:09:00,63.0,62.1,29.80,SSE,149,2.0,2.0,97,0.00,,,0.34,44,Wunderground v.1.15,2013-06-03 23:09:00,
2013-06-03 19:19:00,62.0,61.1,29.80,SSE,150,2.0,2.0,97,0.00,,,0.34,39,Wunderground v.1.15,2013-06-03 23:19:00,
2013-06-03 19:29:00,62.0,61.1,29.81,SSE,165,1.0,6.0,97,0.00,,,0.34,33,Wunderground v.1.15,2013-06-03 23:29:00,
2013-06-03 19:39:00,62.2,61.6,29.81,SSW,207,1.0,6.0,98,0.00,,,0.34,25,Wunderground v.1.15,2013-06-03 23:39:00,
2013-06-03 19:44:00,62.0,61.4,29.81,SSW,207,1.0,6.0,98,0.00,,,0.34,19,Wunderground v.1.15,2013-06-03 23:44:00,
2013-06-03 19:54:00,61.6,61.0,29.81,SE,141,1.0,6.0,98,0.00,,,0.34,14,Wunderground v.1.15,2013-06-03 23:54:00,
2013-06-03 20:04:00,60.8,60.2,29.80,SE,141,1.0,6.0,98,0.00,,,0.34,14,Wunderground v.1.15,2013-06-04 00:04:00,
2013-06-03 20:14:00,61.0,60.4,29.80,SE,141,1.0,2.0,98,0.00,,,0.34,9,Wunderground v.1.15,2013-06-04 00:14:00,
2013-06-03 20:24:00,61.3,60.7,29.80,SE,141,1.0,4.0,98,0.00,,,0.34,5,Wunderground v.1.15,2013-06-04 00:24:00,
2013-06-03 20:34:00,61.8,61.2,29.80,SE,141,1.0,4.0,98,0.00,,,0.34,0,Wunderground v.1.15,2013-06-04 00:34:00,
2013-06-03 20:44:00,62.1,61.5,29.80,SE,141,1.0,4.0,98,0.00,,,0.34,0,Wunderground v.1.15,2013-06-04 00:44:00,
2013-06-03 20:54:00,62.3,61.7,29.81,SE,141,1.0,4.0,98,0.00,,,0.34,0,Wunderground v.1.15,2013-06-04 00:54:00,
2013-06-03 21:04:00,62.6,62.0,29.81,SE,141,0.0,3.0,98,0.00,,,0.34,0,Wunderground v.1.15,2013-06-04 01:04:00,
2013-06-03 21:14:00,61.1,60.5,29.81,SSE,160,3.0,3.0,98,0.00,,,0.34,0,Wunderground v.1.15,2013-06-04 01:14:00,
2013-06-03 21:24:00,60.7,60.1,29.82,SSW,194,3.0,7.0,98,0.00,,,0.34,0,Wunderground v.1.15,2013-06-04 01:24:00,
2013-06-03 21:34:00,60.5,59.9,29.82,SSW,213,3.0,7.0,98,0.00,,,0.34,0,Wunderground v.1.15,2013-06-04 01:34:00,
2013-06-03 21:44:00,60.6,60.0,29.82,South,190,3.0,7.0,98,0.00,,,0.34,0,Wunderground v.1.15,2013-06-04 01:44:00,
2013-06-03 21:49:00,60.8,60.2,29.82,SW,222,2.0,7.0,98,0.00,,,0.34,0,Wunderground v.1.15,2013-06-04 01:49:00,
2013-06-03 21:59:00,60.6,60.0,29.82,SW,215,3.0,7.0,98,0.00,,,0.34,0,Wunderground v.1.15,2013-06-04 01:59:00,
2013-06-03 22:04:00,60.6,60.0,29.82,SW,215,3.0,7.0,98,0.00,,,0.34,0,Wunderground v.1.15,2013-06-04 02:04:00,
2013-06-03 22:14:00,60.8,60.2,29.82,SSW,213,2.0,7.0,98,0.00,,,0.34,0,Wunderground v.1.15,2013-06-04 02:14:00,
2013-06-03 22:24:00,61.1,60.5,29.82,SW,216,3.0,9.0,98,0.00,,,0.34,0,Wunderground v.1.15,2013-06-04 02:24:00,
2013-06-03 22:34:00,61.2,60.6,29.82,SW,216,1.0,9.0,98,0.00,,,0.34,0,Wunderground v.1.15,2013-06-04 02:34:00,
2013-06-03 22:44:00,61.0,60.4,29.82,SW,217,2.0,9.0,98,0.00,,,0.34,0,Wunderground v.1.15,2013-06-04 02:44:00,
2013-06-03 22:54:00,60.9,60.3,29.82,SW,217,1.0,6.0,98,0.00,,,0.34,0,Wunderground v.1.15,2013-06-04 02:54:00,
2013-06-03 23:04:00,60.9,60.3,29.81,SW,217,1.0,6.0,98,0.00,,,0.34,0,Wunderground v.1.15,2013-06-04 03:04:00,
2013-06-03 23:14:00,61.3,60.7,29.81,SW,217,1.0,6.0,98,0.00,,,0.34,0,Wunderground v.1.15,2013-06-04 03:14:00,
2013-06-03 23:24:00,62.2,61.6,29.82,SW,217,1.0,3.0,98,0.00,,,0.34,0,Wunderground v.1.15,2013-06-04 03:24:00,
2013-06-03 23:34:00,63.4,62.8,29.82,SW,219,2.0,4.0,98,0.00,,,0.34,0,Wunderground v.1.15,2013-06-04 03:34:00,
2013-06-03 23:39:00,63.9,63.3,29.82,WSW,253,2.0,4.0,98,0.00,,,0.34,0,Wunderground v.1.15,2013-06-04 03:39:00,
2013-06-03 23:49:00,64.8,64.5,29.82,West,273,3.0,5.0,99,0.00,,,0.34,0,Wunderground v.1.15,2013-06-04 03:49:00,
2013-06-03 23:59:00,65.3,64.7,29.82,West,266,3.0,7.0,98,0.00,,,0.34,0,Wunderground v.1.15,2013-06-04 03:59:00,